Weather History for Ozark, AL

Change the Weather History Date:

Monday, December 17, 2012

  Actual Average Record
Temperature  
Mean Temperature 60 °F -  
Max Temperature 62 °F 58 °F 77 °F (2001)
Min Temperature 57 °F 37 °F 28 °F (2007)
Degree Days  
Heating Degree Days 6    
Growing Degree Days 10 (Base 50)    
Moisture  
Dew Point 59 °F    
Average Humidity 96    
Maximum Humidity 100    
Minimum Humidity 86    
Precipitation  
Precipitation 0.89 in - - ()
Sea Level Pressure  
Sea Level Pressure 29.82 in    
Wind  
Wind Speed 7 mph (SSW)    
Max Wind Speed 15 mph    
Max Gust Speed -    
Visibility 6 miles    
Events Fog , Rain , Thunderstorm    
Averages and records for this station are not official NWS values.
T = Trace of Precipitation, MM = Missing Value Source: NWS Daily Summary

Daily Weather History Graph

Daily Weather History Graph

Search for Another Location

Airport:

Trip Planner

Search our weather history database for the weather conditions in past years. The results will help you decide how hot, cold, wet, or windy it might be!

Date:

Astronomy

Dec. 17, 2012 Rise Set
Actual Time 6:35 AM CST 4:42 PM CST
Civil Twilight 6:08 AM CST 5:09 PM CST
Nautical Twilight 5:38 AM CST 5:39 PM CST
Astronomical Twilight 5:08 AM CST 6:09 PM CST
Moon 9:59 AM CST (12/17) 9:46 PM CST (12/17)
Length of Visible Light 11h 00m
Length of Day
10h 07m
Waxing Crescent, 25% of the Moon is Illuminated
Dec 17
Waxing Crescent
Dec 19
First Quarter
Dec 28
Full
Jan 4
Last Quarter
Jan 11
New

Hourly Weather History & Observations

Time (CST) Temp. Dew Point Humidity Pressure Visibility Wind Dir Wind Speed Gust Speed Precip Events Conditions
12:55 AM 57.4 °F 56.1 °F 96% 29.91 in 10.0 mi East 8.1 mph - 0.01 in   Overcast
1:55 AM 57.6 °F 55.8 °F 94% 29.87 in 10.0 mi ESE 8.1 mph - N/A   Overcast
2:55 AM 58.5 °F 55.2 °F 89% 29.85 in 10.0 mi ESE 9.2 mph - N/A   Overcast
3:04 AM 59.0 °F 55.4 °F 88% 29.86 in 10.0 mi ESE 6.9 mph - N/A   Light Drizzle
3:13 AM 59.0 °F 55.4 °F 88% 29.85 in 10.0 mi ESE 9.2 mph - N/A   Overcast
3:55 AM 58.8 °F 55.9 °F 90% 29.85 in 10.0 mi SE 6.9 mph - 0.00 in   Overcast
4:55 AM 58.6 °F 56.3 °F 92% 29.83 in 10.0 mi SE 10.4 mph - N/A   Overcast
5:55 AM 59.2 °F 55.0 °F 86% 29.84 in 10.0 mi SE 9.2 mph - N/A   Overcast
5:56 AM 59.0 °F 55.4 °F 88% 29.84 in 10.0 mi SE 9.2 mph - N/A Thunderstorm Thunderstorm
6:19 AM 59.0 °F 55.4 °F 88% 29.83 in 10.0 mi SE 8.1 mph - N/A   Overcast
6:52 AM 59.0 °F 55.4 °F 88% 29.88 in 10.0 mi NW 10.4 mph - N/A   Overcast
6:53 AM 59.0 °F 55.4 °F 88% 29.87 in 10.0 mi NW 9.2 mph - N/A Rain Light Rain
6:55 AM 59.5 °F 55.4 °F 86% 29.86 in 10.0 mi North 5.8 mph - 0.00 in Rain Light Rain
7:10 AM 59.0 °F 55.4 °F 88% 29.86 in 10.0 mi North 5.8 mph - N/A   Overcast
7:14 AM 59.0 °F 55.4 °F 88% 29.86 in 10.0 mi North 5.8 mph - N/A   Overcast
7:44 AM 59.0 °F 55.4 °F 88% 29.84 in 10.0 mi East 4.6 mph - N/A   Overcast
7:55 AM 58.8 °F 56.5 °F 92% 29.84 in 10.0 mi East 5.8 mph - 0.00 in   Overcast
8:21 AM 59.0 °F 57.2 °F 94% 29.83 in 10.0 mi East 4.6 mph - N/A Rain Light Rain
8:32 AM 60.8 °F 57.2 °F 88% 29.83 in 10.0 mi ESE 4.6 mph - N/A   Overcast
8:35 AM 60.8 °F 57.2 °F 88% 29.83 in 10.0 mi ESE 4.6 mph - N/A   Overcast
8:54 AM 60.8 °F 59.0 °F 94% 29.83 in 10.0 mi SE 4.6 mph - N/A   Overcast
8:55 AM 61.2 °F 58.1 °F 90% 29.83 in 10.0 mi SE 4.6 mph - 0.01 in   Overcast
9:12 AM 62.6 °F 59.0 °F 88% 29.83 in 10.0 mi Calm Calm - N/A   Overcast
9:42 AM 60.8 °F 59.0 °F 94% 29.83 in 10.0 mi North 9.2 mph - N/A Rain Light Rain
9:52 AM 59.0 °F 59.0 °F 100% 29.83 in 10.0 mi Variable 4.6 mph - N/A   Light Drizzle
9:55 AM 59.7 °F 58.3 °F 95% 29.84 in 10.0 mi NW 5.8 mph - 0.00 in Rain Light Rain
10:07 AM 59.0 °F 59.0 °F 100% 29.86 in 2.0 mi NW 15.0 mph - N/A Rain Heavy Rain
10:08 AM 59.0 °F 59.0 °F 100% 29.86 in 1.5 mi NW 12.7 mph - N/A Rain , Thunderstorm Heavy Thunderstorms and Rain
10:09 AM 59.0 °F 59.0 °F 100% 29.86 in 1.0 mi NW 11.5 mph - N/A Rain , Thunderstorm Heavy Thunderstorms and Rain
10:10 AM 59.0 °F 59.0 °F 100% 29.86 in 0.8 mi NW 11.5 mph - N/A Rain , Thunderstorm Heavy Thunderstorms and Rain
10:11 AM 59.0 °F 59.0 °F 100% 29.86 in 0.8 mi NW 12.7 mph - N/A Rain , Thunderstorm Heavy Thunderstorms and Rain
10:12 AM 59.0 °F 59.0 °F 100% 29.85 in 0.8 mi NW 12.7 mph - N/A Rain , Thunderstorm Heavy Thunderstorms and Rain
10:13 AM 59.0 °F 59.0 °F 100% 29.86 in 0.5 mi NW 12.7 mph - N/A Fog , Rain , Thunderstorm Heavy Thunderstorms and Rain
10:17 AM 59.0 °F 59.0 °F 100% 29.86 in 0.5 mi NW 10.4 mph - N/A Fog , Rain , Thunderstorm Heavy Thunderstorms and Rain
10:20 AM 59.0 °F 59.0 °F 100% 29.87 in 0.8 mi NW 6.9 mph - N/A Rain , Thunderstorm Heavy Thunderstorms and Rain
10:29 AM 59.0 °F 57.2 °F 94% 29.85 in 1.0 mi North 4.6 mph - N/A Rain , Thunderstorm Heavy Thunderstorms and Rain
10:30 AM 59.0 °F 57.2 °F 94% 29.85 in 1.0 mi North 3.5 mph - N/A Rain , Thunderstorm Heavy Thunderstorms and Rain
10:31 AM 59.0 °F 57.2 °F 94% 29.85 in 1.2 mi NNE 3.5 mph - N/A Rain , Thunderstorm Heavy Thunderstorms and Rain
10:33 AM 59.0 °F 57.2 °F 94% 29.86 in 1.5 mi North 3.5 mph - N/A Rain , Thunderstorm Heavy Thunderstorms and Rain
10:35 AM 59.0 °F 57.2 °F 94% 29.85 in 2.0 mi NE 4.6 mph - N/A Rain , Thunderstorm Thunderstorms and Rain
10:41 AM 59.0 °F 57.2 °F 94% 29.85 in 3.0 mi Calm Calm - N/A Rain , Thunderstorm Thunderstorms and Rain
10:44 AM 59.0 °F 57.2 °F 94% 29.85 in 2.5 mi SE 4.6 mph - N/A Rain , Thunderstorm Thunderstorms and Rain
10:46 AM 59.0 °F 57.2 °F 94% 29.86 in 3.0 mi SSE 5.8 mph - N/A Rain , Thunderstorm Thunderstorms and Rain
10:55 AM 59.2 °F 58.3 °F 97% 29.86 in 7.0 mi SE 5.8 mph - 0.74 in Rain , Thunderstorm Light Thunderstorms and Rain
11:20 AM 59.0 °F 59.0 °F 100% 29.83 in 7.0 mi SE 3.5 mph - N/A Rain Light Rain
11:53 AM 60.8 °F 60.8 °F 100% 29.82 in 9.0 mi South 6.9 mph - N/A Rain Light Rain
11:55 AM 60.8 °F 60.3 °F 98% 29.82 in 9.0 mi South 5.8 mph - 0.08 in Rain Light Rain
12:18 PM 60.8 °F 60.8 °F 100% 29.79 in 10.0 mi South 6.9 mph - N/A Rain Light Rain
12:20 PM 60.8 °F 60.8 °F 100% 29.79 in 10.0 mi South 6.9 mph - N/A Rain Light Rain
12:22 PM 60.8 °F 60.8 °F 100% 29.80 in 10.0 mi Variable 5.8 mph - N/A Rain Light Rain
12:24 PM 60.8 °F 60.8 °F 100% 29.80 in 10.0 mi SSW 6.9 mph - N/A Rain Light Rain
12:29 PM 60.8 °F 60.8 °F 100% 29.81 in 10.0 mi SSW 6.9 mph - N/A Rain Light Rain
12:31 PM 62.6 °F 60.8 °F 94% 29.81 in 10.0 mi SW 8.1 mph - N/A Rain Light Rain
12:41 PM 62.6 °F 60.8 °F 94% 29.80 in 10.0 mi SSW 8.1 mph - N/A   Overcast
12:48 PM 62.6 °F 62.6 °F 100% 29.80 in 10.0 mi SSW 9.2 mph - N/A   Overcast
12:55 PM 62.4 °F 61.9 °F 98% 29.79 in 10.0 mi South 10.4 mph - 0.05 in   Overcast
1:15 PM 62.6 °F 62.6 °F 100% 29.77 in 10.0 mi SSW 9.2 mph - N/A   Overcast
1:38 PM 62.6 °F 60.8 °F 94% 29.79 in 10.0 mi SSW 9.2 mph - N/A Rain Light Rain
1:41 PM 62.6 °F 60.8 °F 94% 29.78 in 10.0 mi SSW 10.4 mph - N/A Rain Light Rain
1:55 PM 62.6 °F 61.2 °F 95% 29.78 in 10.0 mi SSW 10.4 mph - 0.00 in Rain Light Rain
1:56 PM 62.6 °F 60.8 °F 94% 29.78 in 10.0 mi SSW 10.4 mph - N/A Rain Light Rain
2:00 PM 62.6 °F 60.8 °F 94% 29.78 in 10.0 mi SSW 8.1 mph - N/A   Overcast
2:11 PM 62.6 °F 60.8 °F 94% 29.77 in 10.0 mi South 9.2 mph - N/A   Overcast
2:41 PM 62.6 °F 60.8 °F 94% 29.74 in 10.0 mi SSE 5.8 mph - N/A   Mostly Cloudy
2:45 PM 62.6 °F 60.8 °F 94% 29.77 in 10.0 mi SSW 5.8 mph - N/A   Mostly Cloudy
2:51 PM 62.6 °F 60.8 °F 94% 29.76 in 10.0 mi WSW 4.6 mph - N/A   Mostly Cloudy
2:55 PM 62.2 °F 61.2 °F 96% 29.76 in 10.0 mi Variable 3.5 mph - 0.00 in   Mostly Cloudy
2:56 PM 62.6 °F 60.8 °F 94% 29.75 in 10.0 mi SW 3.5 mph - N/A   Mostly Cloudy
3:39 PM 62.6 °F 60.8 °F 94% 29.77 in 10.0 mi South 5.8 mph - N/A   Overcast
3:53 PM 62.6 °F 60.8 °F 94% 29.78 in 10.0 mi South 6.9 mph - N/A   Overcast
3:55 PM 62.1 °F 61.0 °F 96% 29.78 in 10.0 mi South 5.8 mph - N/A   Overcast
6:28 PM 60.8 °F 60.8 °F 100% 29.79 in 10.0 mi SSW 5.8 mph - N/A   Overcast
6:32 PM 60.8 °F 60.8 °F 100% 29.79 in 10.0 mi SSW 4.6 mph - N/A   Overcast
6:55 PM 61.3 °F 60.8 °F 98% 29.80 in 10.0 mi SSW 4.6 mph - N/A   Overcast
7:06 PM 60.8 °F 60.8 °F 100% 29.80 in 9.0 mi SW 5.8 mph - N/A   Overcast
7:17 PM 60.8 °F 60.8 °F 100% 29.81 in 8.0 mi SW 5.8 mph - N/A   Scattered Clouds
7:29 PM 60.8 °F 59.0 °F 94% 29.81 in 7.0 mi SW 4.6 mph - N/A   Partly Cloudy
7:37 PM 59.0 °F 59.0 °F 100% 29.81 in 2.5 mi SW 4.6 mph - N/A   Scattered Clouds
7:39 PM 59.0 °F 59.0 °F 100% 29.81 in 1.8 mi SW 4.6 mph - N/A   Scattered Clouds
7:41 PM 59.0 °F 59.0 °F 100% 29.81 in 1.5 mi SW 4.6 mph - N/A   Mostly Cloudy
7:42 PM 59.0 °F 59.0 °F 100% 29.81 in 1.2 mi SW 3.5 mph - N/A   Mostly Cloudy
7:45 PM 59.0 °F 59.0 °F 100% 29.81 in 1.0 mi SW 4.6 mph - N/A   Mist
7:47 PM 59.0 °F 59.0 °F 100% 29.81 in 1.2 mi SW 4.6 mph - N/A   Mostly Cloudy
7:52 PM 59.0 °F 59.0 °F 100% 29.81 in 1.5 mi SW 3.5 mph - N/A   Mostly Cloudy
7:55 PM 59.7 °F 59.2 °F 98% 29.81 in 1.8 mi SSW 3.5 mph - N/A   Overcast
8:00 PM 60.8 °F 59.0 °F 94% 29.81 in 2.0 mi SSW 3.5 mph - N/A   Overcast
8:10 PM 60.8 °F 59.0 °F 94% 29.81 in 1.8 mi SSW 3.5 mph - N/A   Overcast
8:14 PM 60.8 °F 59.0 °F 94% 29.81 in 1.2 mi SW 3.5 mph - N/A   Overcast
8:16 PM 60.8 °F 59.0 °F 94% 29.81 in 1.0 mi SW 3.5 mph - N/A   Mist
8:29 PM 60.8 °F 60.8 °F 100% 29.81 in 1.0 mi Calm Calm - N/A   Mist
8:40 PM 60.8 °F 60.8 °F 100% 29.81 in 0.8 mi Calm Calm - N/A   Mist
8:46 PM 60.8 °F 60.8 °F 100% 29.81 in 0.5 mi Calm Calm - N/A Fog Fog
8:47 PM 60.8 °F 60.8 °F 100% 29.81 in 0.5 mi Calm Calm - N/A Fog Fog
8:48 PM 60.8 °F 60.8 °F 100% 29.81 in 0.5 mi Calm Calm - N/A Fog Fog
8:55 PM 60.4 °F 60.3 °F 99% 29.81 in 0.5 mi SW 3.5 mph - N/A Fog Fog
9:05 PM 60.8 °F 60.8 °F 100% 29.82 in 0.5 mi SW 5.8 mph - N/A Fog Fog
9:13 PM 60.8 °F 60.8 °F 100% 29.82 in 0.5 mi SW 4.6 mph - N/A Fog Fog
9:18 PM 60.8 °F 60.8 °F 100% 29.82 in 0.5 mi SW 5.8 mph - N/A Fog Fog
9:19 PM 60.8 °F 60.8 °F 100% 29.82 in 0.5 mi SW 6.9 mph - N/A Fog Fog
9:20 PM 60.8 °F 60.8 °F 100% 29.82 in 0.8 mi SW 6.9 mph - N/A   Mist
9:21 PM 60.8 °F 60.8 °F 100% 29.82 in 0.8 mi SW 5.8 mph - N/A   Mist
9:24 PM 60.8 °F 60.8 °F 100% 29.82 in 1.0 mi SW 5.8 mph - N/A   Mist
9:27 PM 60.8 °F 60.8 °F 100% 29.82 in 1.2 mi SW 5.8 mph - N/A   Overcast
9:35 PM 60.8 °F 60.8 °F 100% 29.82 in 1.5 mi WSW 5.8 mph - N/A   Overcast
9:42 PM 60.8 °F 60.8 °F 100% 29.82 in 2.0 mi West 4.6 mph - N/A   Overcast
9:45 PM 60.8 °F 60.8 °F 100% 29.82 in 2.5 mi West 5.8 mph - N/A   Overcast
9:46 PM 60.8 °F 60.8 °F 100% 29.82 in 3.0 mi WSW 5.8 mph - N/A   Overcast
9:55 PM 61.0 °F 60.8 °F 99% 29.82 in 5.0 mi WSW 6.9 mph - N/A   Mostly Cloudy
9:59 PM 60.8 °F 60.8 °F 100% 29.82 in 7.0 mi WSW 6.9 mph - N/A   Scattered Clouds
10:55 PM 59.7 °F 59.2 °F 98% 29.83 in 7.0 mi SW 5.8 mph - N/A   Partly Cloudy
11:55 PM 59.2 °F 58.6 °F 98% 29.83 in 9.0 mi WSW 6.9 mph - N/A   Partly Cloudy